1 Minute Report
Date Time Wind Direction Wind Speed Wind Gust Wind Variable Altimeter Temperature Dewpoint Relative Humidity Visibility Ceiling Precip Present Weather Density Alt Wind Chill Heat Index
17/09/25 04:25 220 03 N/A N/A 30.09 N/A N/A N/A 10 CLR N/A N/A N/A N/A N/A 154
17/09/25 04:24 220 03 N/A N/A 30.09 N/A N/A N/A 10 CLR N/A N/A N/A N/A N/A 153
17/09/25 04:23 220 03 N/A N/A 30.09 N/A N/A N/A 10 CLR N/A N/A N/A N/A N/A 152
17/09/25 04:22 220 03 N/A N/A 30.09 N/A N/A N/A 10 CLR N/A N/A N/A N/A N/A 151
17/09/25 04:21 220 03 N/A N/A 30.09 N/A N/A N/A 10 CLR N/A N/A N/A N/A N/A 150
17/09/25 04:20 220 03 N/A N/A 30.09 N/A N/A N/A 10 CLR N/A N/A N/A N/A N/A 149
17/09/25 04:19 220 03 N/A N/A 30.09 N/A N/A N/A 10 CLR N/A N/A N/A N/A N/A 148
17/09/25 04:18 220 03 N/A N/A 30.09 N/A N/A N/A 10 CLR N/A N/A N/A N/A N/A 147
17/09/25 04:17 220 03 N/A N/A 30.09 N/A N/A N/A 10 CLR N/A N/A N/A N/A N/A 146
17/09/25 04:16 220 03 N/A N/A 30.09 N/A N/A N/A 10 CLR N/A N/A N/A N/A N/A 145
17/09/25 04:15 220 03 N/A N/A 30.09 N/A N/A N/A 10 CLR N/A N/A N/A N/A N/A 144
17/09/25 04:14 210 03 N/A N/A 30.09 N/A N/A N/A 10 CLR N/A N/A N/A N/A N/A 143
17/09/25 04:13 220 03 N/A N/A 30.09 N/A N/A N/A 10 CLR N/A N/A N/A N/A N/A 142
17/09/25 04:12 220 03 N/A N/A 30.09 N/A N/A N/A 10 CLR N/A N/A N/A N/A N/A 141
17/09/25 04:11 210 03 N/A N/A 30.09 N/A N/A N/A 10 CLR N/A N/A N/A N/A N/A 140
17/09/25 04:10 210 03 N/A N/A 30.09 N/A N/A N/A 10 CLR N/A N/A N/A N/A N/A 139
17/09/25 04:09 220 03 N/A N/A 30.09 N/A N/A N/A 10 CLR N/A N/A N/A N/A N/A 138
17/09/25 04:08 000 00 N/A N/A 30.09 N/A N/A N/A 10 CLR N/A N/A N/A N/A N/A 137
17/09/25 04:07 000 00 N/A N/A 30.09 N/A N/A N/A 10 CLR N/A N/A N/A N/A N/A 136
17/09/25 04:06 000 00 N/A N/A 30.09 N/A N/A N/A 10 CLR N/A N/A N/A N/A N/A 135
17/09/25 04:05 000 00 N/A N/A 30.09 N/A N/A N/A 10 CLR N/A N/A N/A N/A N/A 134
17/09/25 04:04 210 03 N/A N/A 30.09 N/A N/A N/A 10 CLR N/A N/A N/A N/A N/A 133
17/09/25 04:03 210 03 N/A N/A 30.09 N/A N/A N/A 10 CLR N/A N/A N/A N/A N/A 132
17/09/25 04:02 220 03 N/A N/A 30.09 N/A N/A N/A 10 CLR N/A N/A N/A N/A N/A 131
17/09/25 04:01 220 03 N/A N/A 30.09 N/A N/A N/A 10 CLR N/A N/A N/A N/A N/A 130
17/09/25 04:00 000 00 N/A N/A 30.09 N/A N/A N/A 10 CLR N/A N/A N/A N/A N/A 129
17/09/25 03:59 000 00 N/A N/A 30.09 N/A N/A N/A 10 CLR N/A N/A N/A N/A N/A 128
17/09/25 03:58 000 00 N/A N/A 30.09 N/A N/A N/A 10 CLR N/A N/A N/A N/A N/A 127
17/09/25 03:57 000 00 N/A N/A 30.09 N/A N/A N/A 10 CLR N/A N/A N/A N/A N/A 126
17/09/25 03:56 210 03 N/A N/A 30.09 N/A N/A N/A 10 CLR N/A N/A N/A N/A N/A 125
17/09/25 03:55 210 03 N/A N/A 30.09 N/A N/A N/A 10 CLR N/A N/A N/A N/A N/A 124
17/09/25 03:54 000 00 N/A N/A 30.09 N/A N/A N/A 10 CLR N/A N/A N/A N/A N/A 123
17/09/25 03:53 000 00 N/A N/A 30.09 N/A N/A N/A 10 CLR N/A N/A N/A N/A N/A 122
17/09/25 03:52 000 00 N/A N/A 30.09 N/A N/A N/A 10 CLR N/A N/A N/A N/A N/A 121
17/09/25 03:51 000 00 N/A N/A 30.09 N/A N/A N/A 10 CLR N/A N/A N/A N/A N/A 120
17/09/25 03:50 000 00 N/A N/A 30.09 N/A N/A N/A 10 CLR N/A N/A N/A N/A N/A 119
17/09/25 03:49 000 00 N/A N/A 30.09 N/A N/A N/A 10 CLR N/A N/A N/A N/A N/A 118
17/09/25 03:48 200 03 N/A N/A 30.09 N/A N/A N/A 10 CLR N/A N/A N/A N/A N/A 117
17/09/25 03:47 190 03 N/A N/A 30.09 N/A N/A N/A 10 CLR N/A N/A N/A N/A N/A 116
17/09/25 03:46 000 00 N/A N/A 30.09 N/A N/A N/A 10 CLR N/A N/A N/A N/A N/A 115
17/09/25 03:45 000 00 N/A N/A 30.09 N/A N/A N/A 10 CLR N/A N/A N/A N/A N/A 114
17/09/25 03:44 000 00 N/A N/A 30.09 N/A N/A N/A 10 CLR N/A N/A N/A N/A N/A 113
17/09/25 03:43 000 00 N/A N/A 30.09 N/A N/A N/A 10 CLR N/A N/A N/A N/A N/A 112
17/09/25 03:42 000 00 N/A N/A 30.09 N/A N/A N/A 10 CLR N/A N/A N/A N/A N/A 111
17/09/25 03:41 000 00 N/A N/A 30.09 N/A N/A N/A 10 CLR N/A N/A N/A N/A N/A 110
17/09/25 03:40 000 00 N/A N/A 30.09 N/A N/A N/A 10 CLR N/A N/A N/A N/A N/A 109
17/09/25 03:39 000 00 N/A N/A 30.09 N/A N/A N/A 10 CLR N/A N/A N/A N/A N/A 108
17/09/25 03:38 000 00 N/A N/A 30.09 N/A N/A N/A 10 CLR N/A N/A N/A N/A N/A 107
17/09/25 03:37 000 00 N/A N/A 30.09 N/A N/A N/A 10 CLR N/A N/A N/A N/A N/A 106
17/09/25 03:36 000 00 N/A N/A 30.09 N/A N/A N/A 10 CLR N/A N/A N/A N/A N/A 105
17/09/25 03:35 000 00 N/A N/A 30.09 N/A N/A N/A 10 CLR N/A N/A N/A N/A N/A 104
17/09/25 03:34 000 00 N/A N/A 30.09 N/A N/A N/A 10 CLR N/A N/A N/A N/A N/A 103
17/09/25 03:33 000 00 N/A N/A 30.09 N/A N/A N/A 10 CLR N/A N/A N/A N/A N/A 102
17/09/25 03:32 000 00 N/A N/A 30.09 N/A N/A N/A 10 CLR N/A N/A N/A N/A N/A 101
17/09/25 03:31 000 00 N/A N/A 30.09 N/A N/A N/A 10 CLR N/A N/A N/A N/A N/A 100
17/09/25 03:30 000 00 N/A N/A 30.09 N/A N/A N/A 10 CLR N/A N/A N/A N/A N/A 99
17/09/25 03:29 000 00 N/A N/A 30.09 N/A N/A N/A 10 CLR N/A N/A N/A N/A N/A 98
17/09/25 03:28 000 00 N/A N/A 30.09 N/A N/A N/A 10 CLR N/A N/A N/A N/A N/A 97
17/09/25 03:27 000 00 N/A N/A 30.09 N/A N/A N/A 10 CLR N/A N/A N/A N/A N/A 96
17/09/25 03:26 000 00 N/A N/A 30.09 N/A N/A N/A 10 CLR N/A N/A N/A N/A N/A 95
17/09/25 03:25 000 00 N/A N/A 30.09 N/A N/A N/A 10 CLR N/A N/A N/A N/A N/A 94
17/09/25 03:24 000 00 N/A N/A 30.09 N/A N/A N/A 10 CLR N/A N/A N/A N/A N/A 93
17/09/25 03:23 000 00 N/A N/A 30.09 N/A N/A N/A 10 CLR N/A N/A N/A N/A N/A 92
17/09/25 03:22 000 00 N/A N/A 30.09 N/A N/A N/A 10 CLR N/A N/A N/A N/A N/A 91
17/09/25 03:21 000 00 N/A N/A 30.09 N/A N/A N/A 10 CLR N/A N/A N/A N/A N/A 90
17/09/25 03:20 000 00 N/A N/A 30.09 N/A N/A N/A 10 CLR N/A N/A N/A N/A N/A 89
17/09/25 03:19 000 00 N/A N/A 30.09 N/A N/A N/A 10 CLR N/A N/A N/A N/A N/A 88
17/09/25 03:18 000 00 N/A N/A 30.09 N/A N/A N/A 10 CLR N/A N/A N/A N/A N/A 87
17/09/25 03:17 210 03 N/A N/A 30.09 N/A N/A N/A 10 CLR N/A N/A N/A N/A N/A 86
17/09/25 03:16 210 03 N/A N/A 30.09 N/A N/A N/A 10 CLR N/A N/A N/A N/A N/A 85
17/09/25 03:15 210 03 N/A N/A 30.09 N/A N/A N/A 10 CLR N/A N/A N/A N/A N/A 84
17/09/25 03:14 210 03 N/A N/A 30.09 N/A N/A N/A 10 CLR N/A N/A N/A N/A N/A 83
17/09/25 03:13 210 03 N/A N/A 30.09 N/A N/A N/A 10 CLR N/A N/A N/A N/A N/A 82
17/09/25 03:12 210 03 N/A N/A 30.09 N/A N/A N/A 10 CLR N/A N/A N/A N/A N/A 81
17/09/25 03:11 210 03 N/A N/A 30.09 N/A N/A N/A 10 CLR N/A N/A N/A N/A N/A 80
17/09/25 03:10 210 03 N/A N/A 30.09 N/A N/A N/A 10 CLR N/A N/A N/A N/A N/A 79
17/09/25 03:09 210 03 N/A N/A 30.09 N/A N/A N/A 10 CLR N/A N/A N/A N/A N/A 78
17/09/25 03:08 210 03 N/A N/A 30.09 N/A N/A N/A 10 CLR N/A N/A N/A N/A N/A 77
17/09/25 03:07 200 03 N/A N/A 30.09 N/A N/A N/A 10 CLR N/A N/A N/A N/A N/A 76
17/09/25 03:06 210 03 N/A N/A 30.09 N/A N/A N/A 10 CLR N/A N/A N/A N/A N/A 75
17/09/25 03:05 210 03 N/A N/A 30.09 N/A N/A N/A 10 CLR N/A N/A N/A N/A N/A 74
17/09/25 03:04 210 03 N/A N/A 30.09 N/A N/A N/A 10 CLR N/A N/A N/A N/A N/A 73
17/09/25 03:03 210 03 N/A N/A 30.09 N/A N/A N/A 10 CLR N/A N/A N/A N/A N/A 72
17/09/25 03:02 210 04 N/A N/A 30.09 N/A N/A N/A 10 CLR N/A N/A N/A N/A N/A 71
17/09/25 03:01 210 04 N/A N/A 30.09 N/A N/A N/A 10 CLR N/A N/A N/A N/A N/A 70
17/09/25 03:00 210 03 N/A N/A 30.09 N/A N/A N/A 10 CLR N/A N/A N/A N/A N/A 69
17/09/25 02:59 210 03 N/A N/A 30.09 N/A N/A N/A 10 CLR N/A N/A N/A N/A N/A 68
17/09/25 02:58 210 03 N/A N/A 30.09 N/A N/A N/A 10 CLR N/A N/A N/A N/A N/A 67
17/09/25 02:57 210 03 N/A N/A 30.09 N/A N/A N/A 10 CLR N/A N/A N/A N/A N/A 66
17/09/25 02:56 210 03 N/A N/A 30.09 N/A N/A N/A 10 CLR N/A N/A N/A N/A N/A 65
17/09/25 02:55 000 00 N/A N/A 30.09 N/A N/A N/A 10 CLR N/A N/A N/A N/A N/A 64
17/09/25 02:54 200 03 N/A N/A 30.09 N/A N/A N/A 10 CLR N/A N/A N/A N/A N/A 63
17/09/25 02:53 000 00 N/A N/A 30.09 N/A N/A N/A 10 CLR N/A N/A N/A N/A N/A 62
17/09/25 02:52 000 00 N/A N/A 30.09 N/A N/A N/A 10 CLR N/A N/A N/A N/A N/A 61
17/09/25 02:51 210 03 N/A N/A 30.09 N/A N/A N/A 10 CLR N/A N/A N/A N/A N/A 60
17/09/25 02:50 210 03 N/A N/A 30.09 N/A N/A N/A 10 CLR N/A N/A N/A N/A N/A 59
17/09/25 02:49 210 03 N/A N/A 30.09 N/A N/A N/A 10 CLR N/A N/A N/A N/A N/A 58
17/09/25 02:48 200 03 N/A N/A 30.09 N/A N/A N/A 10 CLR N/A N/A N/A N/A N/A 57
17/09/25 02:47 000 00 N/A N/A 30.09 N/A N/A N/A 10 CLR N/A N/A N/A N/A N/A 56
17/09/25 02:46 200 03 N/A N/A 30.09 N/A N/A N/A 10 CLR N/A N/A N/A N/A N/A 55
17/09/25 02:45 210 03 N/A N/A 30.09 N/A N/A N/A 10 CLR N/A N/A N/A N/A N/A 54
17/09/25 02:44 210 03 N/A N/A 30.09 N/A N/A N/A 10 CLR N/A N/A N/A N/A N/A 53
17/09/25 02:43 210 03 N/A N/A 30.09 N/A N/A N/A 10 CLR N/A N/A N/A N/A N/A 52
17/09/25 02:42 210 03 N/A N/A 30.09 N/A N/A N/A 10 CLR N/A N/A N/A N/A N/A 51
17/09/25 02:41 210 03 N/A N/A 30.09 N/A N/A N/A 10 CLR N/A N/A N/A N/A N/A 50
17/09/25 02:40 210 03 N/A N/A 30.09 N/A N/A N/A 10 CLR N/A N/A N/A N/A N/A 49
17/09/25 02:39 210 03 N/A N/A 30.09 N/A N/A N/A 10 CLR N/A N/A N/A N/A N/A 48
17/09/25 02:38 210 03 N/A N/A 30.09 N/A N/A N/A 10 CLR N/A N/A N/A N/A N/A 47
17/09/25 02:37 210 03 N/A N/A 30.09 N/A N/A N/A 10 CLR N/A N/A N/A N/A N/A 46
17/09/25 02:36 210 03 N/A N/A 30.09 N/A N/A N/A 10 CLR N/A N/A N/A N/A N/A 45
17/09/25 02:35 210 03 N/A N/A 30.09 N/A N/A N/A 10 CLR N/A N/A N/A N/A N/A 44
17/09/25 02:34 000 00 N/A N/A 30.09 N/A N/A N/A 10 CLR N/A N/A N/A N/A N/A 43
17/09/25 02:33 200 03 N/A N/A 30.09 N/A N/A N/A 10 CLR N/A N/A N/A N/A N/A 42
17/09/25 02:32 200 03 N/A N/A 30.09 N/A N/A N/A 10 CLR N/A N/A N/A N/A N/A 41
17/09/25 02:31 200 03 N/A N/A 30.09 N/A N/A N/A 10 CLR N/A N/A N/A N/A N/A 40
17/09/25 02:30 200 03 N/A N/A 30.09 N/A N/A N/A 10 CLR N/A N/A N/A N/A N/A 39
17/09/25 02:29 200 03 N/A N/A 30.09 N/A N/A N/A 10 CLR N/A N/A N/A N/A N/A 38
17/09/25 02:28 200 03 N/A N/A 30.09 N/A N/A N/A 10 CLR N/A N/A N/A N/A N/A 37
17/09/25 02:27 200 03 N/A N/A 30.09 N/A N/A N/A 10 CLR N/A N/A N/A N/A N/A 36
17/09/25 02:26 200 03 N/A N/A 30.09 N/A N/A N/A 10 CLR N/A N/A N/A N/A N/A 35
17/09/25 02:25 200 03 N/A N/A 30.09 N/A N/A N/A 10 CLR N/A N/A N/A N/A N/A 34